Air Quality Table

TIMESTAMP NO2 SO2 O3 PM10 PM2.5 TEMP HUM AIRPRES WS WD NO
2022-08-15 17:00 3.74 µg/m3 -0.07 µg/m3 89.28 µg/m3 22.02 µg/m3 12.41 µg/m3 29.3 °C 85.15 % 1,003.97 mbar 4.37 m/s 162.78 Deg 1.26 µg/m3
2022-08-15 09:00 6.92 µg/m3 -0.07 µg/m3 79.47 µg/m3 25.62 µg/m3 15.48 µg/m3 27.24 °C 88.66 % 1,003.18 mbar 2.42 m/s 171.41 Deg 1.57 µg/m3
2022-08-15 01:00 14.4 µg/m3 -0.07 µg/m3 81.24 µg/m3 24.51 µg/m3 8.4 µg/m3 29.26 °C 70.44 % 1,002.46 mbar 1.73 m/s 218.75 Deg 1.13 µg/m3
2022-08-14 17:00 8.37 µg/m3 -0.1 µg/m3 90.13 µg/m3 22.58 µg/m3 8.46 µg/m3 31.1 °C 70.36 % 1,002.33 mbar 2.84 m/s 170.91 Deg 1.76 µg/m3
2022-08-14 09:00 7.45 µg/m3 -0.08 µg/m3 76.63 µg/m3 19.82 µg/m3 12.84 µg/m3 27.96 °C 85.56 % 1,003.32 mbar 2.27 m/s 282.45 Deg 1.2 µg/m3
2022-08-14 01:00 8.07 µg/m3 -0.1 µg/m3 83.05 µg/m3 30.86 µg/m3 12.86 µg/m3 28.05 °C 79.01 % 1,004.82 mbar 3.02 m/s 278.13 Deg 1.02 µg/m3
2022-08-13 17:00 9.04 µg/m3 -0.09 µg/m3 99.93 µg/m3 19.39 µg/m3 7.98 µg/m3 30.01 °C 63.07 % 1,005.89 mbar 3.13 m/s 269.16 Deg 1.86 µg/m3
2022-08-13 09:00 18.95 µg/m3 -0.04 µg/m3 79.73 µg/m3 23.38 µg/m3 9.9 µg/m3 26.41 °C 79.58 % 1,005.59 mbar 1.66 m/s 216.27 Deg 2.31 µg/m3
2022-08-13 01:00 16.35 µg/m3 -0.05 µg/m3 85.95 µg/m3 27.06 µg/m3 10.59 µg/m3 27.41 °C 74.68 % 1,005.28 mbar 2.13 m/s 287.85 Deg 1.38 µg/m3
2022-08-12 17:00 11.24 µg/m3 -0.06 µg/m3 94.65 µg/m3 28.46 µg/m3 9.57 µg/m3 28.7 °C 67.44 % 1,005.13 mbar 2.69 m/s 137.47 Deg 2.32 µg/m3
2022-08-12 09:00 22.6 µg/m3 0.01 µg/m3 59.09 µg/m3 33.87 µg/m3 10.12 µg/m3 26.31 °C 81.89 % 1,005.05 mbar 1.41 m/s 127.72 Deg 3.73 µg/m3
2022-08-12 01:00 10.65 µg/m3 -0.09 µg/m3 60.18 µg/m3 18.25 µg/m3 9.66 µg/m3 26.8 °C 82.93 % 1,005.70 mbar 1.67 m/s 185.39 Deg 1.4 µg/m3
2022-08-11 17:00 3.41 µg/m3 -0.03 µg/m3 78.73 µg/m3 27.07 µg/m3 9.35 µg/m3 27.81 °C 78.43 % 1,006.13 mbar 3.76 m/s 144.19 Deg 1.17 µg/m3
2022-08-11 09:00 22.93 µg/m3 0.08 µg/m3 50.83 µg/m3 26.29 µg/m3 9.75 µg/m3 26.97 °C 77.83 % 1,005.93 mbar 1.28 m/s 192.4 Deg 3.96 µg/m3
2022-08-11 01:00 4.34 µg/m3 -0.05 µg/m3 69.71 µg/m3 22.24 µg/m3 6.13 µg/m3 28.01 °C 73.78 % 1,006.48 mbar 1.03 m/s 207.04 Deg 0.75 µg/m3
2022-08-10 17:00 2.46 µg/m3 -0.08 µg/m3 80.12 µg/m3 11.3 µg/m3 6.41 µg/m3 29.22 °C 72.89 % 1,006.81 mbar 3.78 m/s 159.02 Deg 1.03 µg/m3
2022-08-10 09:00 13.66 µg/m3 -0.03 µg/m3 57.19 µg/m3 31.17 µg/m3 14.05 µg/m3 27.25 °C 87.25 % 1,006.68 mbar 1.24 m/s 199.01 Deg 1.77 µg/m3
2022-08-10 01:00 13.09 µg/m3 -0.06 µg/m3 65.35 µg/m3 35.12 µg/m3 14.13 µg/m3 28.38 °C 83.01 % 1,006.91 mbar 1.5 m/s 176.98 Deg 1.4 µg/m3
2022-08-09 17:00 5.96 µg/m3 -0.06 µg/m3 92.87 µg/m3 25.16 µg/m3 10.56 µg/m3 30.51 °C 67.51 % 1,006.80 mbar 3.34 m/s 211.29 Deg 1.37 µg/m3
2022-08-09 09:00 19.59 µg/m3 0.02 µg/m3 70.99 µg/m3 50.42 µg/m3 15.49 µg/m3 27.72 °C 83.65 % 1,006.38 mbar 0.84 m/s 222.78 Deg 2.59 µg/m3

It is to be noted that the data is provisional and subject to quality assurance procedures. For validated data kindly refer your request to contact.air@era.org.mt